Actual water levels and discharges of Elbe river

Guaranteed water level and forecast    Ústí nad Labem-Střekov

Guaranteed water level
170 cm
on 05.12.2022 more information
Forecast
180 cm
on 06.12.2022 07:00
Tendency
Slowly rising
on 06.12.2022 tendency methodology
Assumption
190 cm
on 07.12.2022 07:00
(Source data ČHMÚ a Povodí Labe)

Děčín

Date and time (UTC) H (cm) Q (m³/s)
6. 12. 2022 04:20 142 155
6. 12. 2022 04:00 141 153
6. 12. 2022 03:00 139 150
6. 12. 2022 02:00 138 149
6. 12. 2022 01:00 138 149
6. 12. 2022 00:00 138 149
5. 12. 2022 23:00 138 149
5. 12. 2022 22:00 137 147
5. 12. 2022 21:00 137 147
5. 12. 2022 20:00 137 147
5. 12. 2022 19:00 137 147
5. 12. 2022 18:00 137 147
5. 12. 2022 17:00 137 147
5. 12. 2022 16:00 138 149

H - water level, Q - discharge

Ústí nad Labem

Date and time (UTC) H (cm) Q (m³/s)
6. 12. 2022 04:20 182 158
6. 12. 2022 04:00 182 158
6. 12. 2022 03:00 183 160
6. 12. 2022 02:00 183 160
6. 12. 2022 01:00 183 160
6. 12. 2022 00:00 181 156
5. 12. 2022 23:00 172 142
5. 12. 2022 22:00 172 142
5. 12. 2022 21:00 172 142
5. 12. 2022 20:00 172 142
5. 12. 2022 19:00 172 142
5. 12. 2022 18:00 172 142
5. 12. 2022 17:00 172 142
5. 12. 2022 16:00 172 142

H - water level, Q - discharge
more information

Mělník

Date and time (UTC) H (cm) Q (m³/s)
6. 12. 2022 04:20 270 -
6. 12. 2022 04:00 269 -
6. 12. 2022 03:00 262 -
6. 12. 2022 02:00 258 -
6. 12. 2022 01:00 262 -
6. 12. 2022 00:00 266 -
5. 12. 2022 23:00 264 -
5. 12. 2022 22:00 264 -
5. 12. 2022 21:00 270 -
5. 12. 2022 20:00 266 -
5. 12. 2022 19:00 258 -
5. 12. 2022 18:00 264 -
5. 12. 2022 17:00 273 -
5. 12. 2022 16:00 264 -

H - water level, Q - discharge
more information

Kostelec nad Labem

Date and time (UTC) H (cm) Q (m³/s)
6. 12. 2022 04:20 400 -
6. 12. 2022 04:00 400 29
6. 12. 2022 03:00 404 39
6. 12. 2022 02:00 402 29
6. 12. 2022 01:00 401 19
6. 12. 2022 00:00 400 20
5. 12. 2022 23:00 402 30
5. 12. 2022 22:00 402 30
5. 12. 2022 21:00 402 30
5. 12. 2022 20:00 400 37
5. 12. 2022 19:00 405 43
5. 12. 2022 18:00 402 29
5. 12. 2022 17:00 400 19
5. 12. 2022 16:00 402 35

H - water level, Q - discharge
more information

Přelouč

Date and time (UTC) H (cm) Q (m³/s)
6. 12. 2022 04:20 44 17.9
6. 12. 2022 04:00 43 17
6. 12. 2022 03:00 38 15
6. 12. 2022 02:00 37 14
6. 12. 2022 01:00 36 14
6. 12. 2022 00:00 36 14
5. 12. 2022 23:00 36 14
5. 12. 2022 22:00 41 16
5. 12. 2022 21:00 47 20
5. 12. 2022 20:00 45 19
5. 12. 2022 19:00 37 14
5. 12. 2022 18:00 29 11
5. 12. 2022 17:00 46 19
5. 12. 2022 16:00 48 20

H - water level, Q - discharge
more information

Němčice

Date and time (UTC) H (cm) Q (m³/s)
6. 12. 2022 04:10 63 12.4
6. 12. 2022 04:00 63 12
6. 12. 2022 03:00 63 12
6. 12. 2022 02:00 63 12
6. 12. 2022 01:00 62 12
6. 12. 2022 00:00 62 12
5. 12. 2022 23:00 61 12
5. 12. 2022 22:00 62 12
5. 12. 2022 21:00 62 12
5. 12. 2022 20:00 63 12
5. 12. 2022 19:00 63 12
5. 12. 2022 18:00 63 12
5. 12. 2022 17:00 62 12
5. 12. 2022 16:00 62 12

H - water level, Q - discharge
Source data
Labe Basin Vltava Basin Povodí Moravy ČHMÚ